Lid_Strength_Index
7 6 6 6 6 6 6 6 6 5 4 4 3 2 2 2 2 1 1 1 1 2
7 7 6 6 6 6 6 6 6 5 4 4 3 3 2 3 3 2 1 1 1 2
7 7 6 6 6 6 6 7 6 5 4 4 3 3 3 3 3 3 2 2 2 2
7 7 6 6 6 6 6 6 6 5 5 4 4 4 3 3 3 3 3 3 2 2
7 7 7 7 7 6 7 6 6 6 5 4 4 4 4 4 4 4 3 3 3 3
8 8 8 7 7 7 7 7 6 6 6 5 4 4 4 4 4 4 3 3 3 4
8 8 8 7 7 7 7 7 6 6 6 5 4 4 4 4 4 4 4 3 3 4
8 8 8 7 7 7 7 7 6 6 6 5 5 4 3 3 3 4 4 4 3 3
8 8 8 8 8 8 8 7 7 6 5 5 5 7 8 5 3 4 4 5 4 5
8 9 8 8 8 8 8 7 6 5 5 5 5 8 8 9 4 4 4 4 5 7
9 9 9 9 9 9 7 7 6 5 5 5 5 8 9 10 5 4 4 4 5 6
9 10 10 10 9 8 7 7 6 5 5 6 5 9 10 9 6 5 4 4 5 6
10 10 9 9 8 8 7 7 8 7 6 9 6 9 9 9 7 7 8 6 6 12
10 10 9 8 8 8 9 10 10 11 10 9 8 7 9 9 8 7 10 10 11 11